Content
SEND FEEDBACK

Daily
Averages
Monthly
Summary
Malaysia

KUCHING, MALAYSIA


Home > Asia > Malaysia
Elevation: 89 feet     Latitude: 01 29N     Longitude: 110 20E

WEATHER
 
SELECT A DAY
Number of Records: 280,404;   Date Range: 8/9/96 - 11/27/14
 
SHARE

PRINT THIS DATA

[ ← Previous Day ]
WEATHER ALMANAC - MARCH 14, 2013
[ Next Day → ]
[ °C ]   °F
Weather ElementAverageHighLow
Temperature81.6 °F89.6 °F (2:30 pm)75.2 °F (6:30 am)
Dewpoint75.8 °F78 °F (2:00 pm)71.6 °F (3:30 pm)
Humidity82.7 %100 % (1:00 am)55 % (3:30 pm)
Barometer29.87 in29.93 in (11:00 pm)29.77 in (4:30 pm)
Wind Speed4.4 mph11.5 mph (3:30 pm)
Weather ElementAverage
Visibility6 mi
Wind DirectionESE (115.9 °)

Weather ElementTotal
Precipitation---
Cooling Degree Days17.4 (Base 65)
Growing Degree Days32.4 (Base 50)
Averaged from 55 records on March 14, 2013
WEATHER CONDITIONS BREAKOUT
WIND DIRECTION BREAKOUT
WEATHER BY HOUR - MARCH 14, 2013
[ °C ]   °F
Local TimeTemperatureDewpointHumidityBarometerVisibilityWind DirectionWind SpeedGust SpeedPrecipitationEventsConditions
12:30 AM78.8 °F77.0 °F94 %29.89 in5.0 miSW (220°)2.3 mphMostly Cloudy
1:00 AM77.0 °F77.0 °F100 %29.89 in3.7 miSouth (180°)3.5 mphMostly Cloudy
1:30 AM78.8 °F77.0 °F94 %29.89 in3.7 miCalmMostly Cloudy
2:00 AM78.0 °F76.0 °F93 %29.89 in5.0 miCalmHaze
2:00 AM78.8 °F77.0 °F94 %29.89 in5.0 miCalmMostly Cloudy
2:30 AM77.0 °F77.0 °F100 %29.86 in5.0 miSouth (180°)3.5 mphMostly Cloudy
3:00 AM77.0 °F77.0 °F100 %29.86 in5.0 miSSE (160°)3.5 mphRainLight Rain
3:30 AM77.0 °F77.0 °F100 %29.86 in3.1 miSE (130°)1.2 mphRainLight Rain
4:00 AM77.0 °F77.0 °F100 %29.86 in3.1 miSE (140°)4.6 mphRainLight Rain
4:30 AM77.0 °F77.0 °F100 %29.86 in3.1 miSSE (150°)3.5 mphRainLight Rain
5:00 AM77.0 °F76.0 °F94 %29.88 in3.0 miESE (110°)2.3 mphRainLight Rain
5:00 AM77.0 °F75.2 °F94 %29.86 in3.1 miESE (110°)2.3 mphRainLight Rain
5:30 AM77.0 °F75.2 °F94 %29.86 in3.7 miSSE (150°)3.5 mphRainLight Rain
6:00 AM77.0 °F75.2 °F94 %29.89 in3.1 miSSE (160°)3.5 mphRainLight Rain
6:30 AM75.2 °F75.2 °F100 %29.89 in3.7 miSSE (160°)3.5 mphMostly Cloudy
7:00 AM75.2 °F73.4 °F94 %29.89 in5.0 miEast (100°)3.5 mphMostly Cloudy
7:30 AM75.2 °F73.4 °F94 %29.89 in6.2 miESE (120°)1.2 mphMostly Cloudy
8:00 AM76.0 °F74.0 °F90 %29.92 in11.0 miEast (80°)4.6 mphPartly Cloudy
8:00 AM75.2 °F73.4 °F94 %29.92 in6.2 miEast (80°)4.6 mphMostly Cloudy
8:30 AM77.0 °F73.4 °F89 %29.92 in6.2 miSE (140°)3.5 mphMostly Cloudy
9:00 AM78.8 °F75.2 °F89 %29.92 in6.2 miEast (100°)4.6 mphMostly Cloudy
9:30 AM80.6 °F75.2 °F84 %29.92 in6.2 miESE (110°)4.6 mphMostly Cloudy
10:00 AM84.2 °F77.0 °F79 %29.92 in6.2 miEast (100°)3.5 mphMostly Cloudy
10:30 AM84.2 °F77.0 °F79 %29.92 in6.2 miESE (120°)4.6 mphMostly Cloudy
11:00 AM87.0 °F76.0 °F62 %29.92 in12.0 miESE (110°)4.6 mphPartly Cloudy
11:00 AM87.8 °F75.2 °F66 %29.92 in6.2 miESE (110°)4.6 mphMostly Cloudy
11:30 AM87.8 °F75.2 °F66 %29.89 in6.2 miEast (90°)5.8 mphMostly Cloudy
12:00 PM87.8 °F77.0 °F70 %29.89 in6.2 miENE (60°)4.6 mphMostly Cloudy
12:30 PM87.8 °F77.0 °F70 %29.89 in6.2 miNE (50°)6.9 mphMostly Cloudy
1:00 PM87.8 °F77.0 °F70 %29.86 in6.2 miNE (50°)5.8 mphMostly Cloudy
1:30 PM87.8 °F77.0 °F70 %29.86 in6.2 miNE (40°)8.1 mphMostly Cloudy
2:00 PM89.0 °F78.0 °F62 %29.85 in12.0 miNE (50°)10.4 mphPartly Cloudy
2:00 PM87.8 °F77.0 °F70 %29.83 in6.2 miNE (50°)10.4 mphMostly Cloudy
2:30 PM89.6 °F77.0 °F66 %29.83 in6.2 miNNE (30°)10.4 mphMostly Cloudy
3:00 PM89.6 °F75.2 °F62 %29.80 in6.2 miNNE (20°)9.2 mphMostly Cloudy
3:30 PM89.6 °F71.6 °F55 %29.80 in6.2 miENE (60°)11.5 mphMostly Cloudy
4:00 PM87.8 °F75.2 °F66 %29.80 in6.2 miNE (40°)6.9 mphMostly Cloudy
4:30 PM86.0 °F75.2 °F70 %29.77 in6.2 miNNE (20°)8.1 mphMostly Cloudy
5:00 PM86.0 °F74.0 °F61 %29.81 in11.0 miNNW (340°)6.9 mphPartly Cloudy
5:00 PM86.0 °F75.2 °F70 %29.80 in6.2 miNNW (340°)6.9 mphMostly Cloudy
5:30 PM84.2 °F75.2 °F74 %29.80 in6.2 miNNW (340°)6.9 mphMostly Cloudy
6:00 PM84.2 °F75.2 °F74 %29.80 in6.2 miNorth (360°)5.8 mphMostly Cloudy
6:30 PM82.4 °F75.2 °F79 %29.83 in6.2 miNNE (20°)5.8 mphMostly Cloudy
7:00 PM82.4 °F75.2 °F79 %29.83 in6.2 miNorth (350°)4.6 mphMostly Cloudy
7:30 PM82.4 °F75.2 °F79 %29.86 in6.2 miNorth (10°)3.5 mphMostly Cloudy
8:00 PM82.0 °F76.0 °F76 %29.87 in9.0 miNE (50°)3.5 mphScattered Clouds
8:00 PM82.4 °F75.2 °F79 %29.86 in6.2 miNE (50°)3.5 mphMostly Cloudy
8:30 PM82.4 °F75.2 °F79 %29.86 in6.2 miNE (40°)4.6 mphMostly Cloudy
9:00 PM80.6 °F75.2 °F84 %29.89 in6.2 miSE (140°)1.2 mphMostly Cloudy
9:30 PM80.6 °F77.0 °F89 %29.89 in6.2 miSSE (160°)2.3 mphMostly Cloudy
10:00 PM78.8 °F75.2 °F89 %29.89 in6.2 miSouth (180°)3.5 mphMostly Cloudy
10:30 PM78.8 °F75.2 °F89 %29.92 in6.2 miCalmMostly Cloudy
11:00 PM79.0 °F77.0 °F90 %29.93 in9.0 miENE (70°)1.2 mphScattered Clouds
11:00 PM78.8 °F77.0 °F94 %29.92 in6.2 miENE (70°)1.2 mphMostly Cloudy
11:30 PM78.8 °F77.0 °F94 %29.92 in6.2 miSSE (160°)3.5 mphMostly Cloudy
Hourly data recorded from WBGG, located miles away from Kuching, Malaysia







STORIES FROM OUR PARTNERS